Weather History for Reading, PA

Change the Weather History Date:

Monday, June 17, 2013

  Actual Average Record
Temperature  
Mean Temperature 76 °F 71 °F  
Max Temperature 87 °F 82 °F 97 °F (1957)
Min Temperature 65 °F 61 °F 44 °F (1980)
Degree Days  
Heating Degree Days 0 1  
Month to date heating degree days 2 23  
Since 1 June heating degree days 2 23  
Since 1 July heating degree days 4990 5391  
Cooling Degree Days 11 7  
Month to date cooling degree days 98 85  
Year to date cooling degree days 197 145  
Since 1 June cooling degree days 98 85  
Growing Degree Days 26 (Base 50)    
Moisture  
Dew Point 65 °F    
Average Humidity 68    
Maximum Humidity 87    
Minimum Humidity 48    
Precipitation  
Precipitation 0.00 in 0.14 in 2.26 in (1922)
Month to date precipitation 4.95 2.36  
Year to date precipitation 17.99 19.38  
Sea Level Pressure  
Sea Level Pressure 29.90 in    
Wind  
Wind Speed 4 mph (SW)    
Max Wind Speed 14 mph    
Max Gust Speed 17 mph    
Visibility 10 miles    
Events      
T = Trace of Precipitation, MM = Missing Value Source: NWS Daily Summary

Daily Weather History Graph

Daily Weather History Graph

Search for Another Location

Airport:

Trip Planner

Search our weather history database for the weather conditions in past years. The results will help you decide how hot, cold, wet, or windy it might be!

Date:

Astronomy

Jun. 17, 2013 Rise Set
Actual Time 5:33 AM EDT 8:36 PM EDT
Civil Twilight 5:00 AM EDT 9:09 PM EDT
Nautical Twilight 4:18 AM EDT 9:51 PM EDT
Astronomical Twilight 3:28 AM EDT 10:41 PM EDT
Moon 2:11 PM EDT (6/17) 1:08 AM EDT (6/17)
Length of Visible Light 16h 09m
Length of Day
15h 03m
First Quarter, 60% of the Moon is Illuminated
Jun 17
First Quarter
Jun 23
Full
Jun 30
Last Quarter
Jul 8
New
Jul 15
First Quarter

Hourly Weather History & Observations

Time (EDT) Temp. Heat Index Dew Point Humidity Pressure Visibility Wind Dir Wind Speed Gust Speed Precip Events Conditions
12:54 AM 68.0 °F - 63.0 °F 84% 29.90 in 10.0 mi Calm Calm - N/A   Clear
1:54 AM 68.0 °F - 63.0 °F 84% 29.90 in 10.0 mi Calm Calm - N/A   Clear
2:54 AM 66.0 °F - 63.0 °F 90% 29.89 in 10.0 mi Calm Calm - N/A   Clear
3:54 AM 66.0 °F - 63.0 °F 90% 29.90 in 10.0 mi Calm Calm - N/A   Clear
4:54 AM 66.0 °F - 63.0 °F 90% 29.91 in 10.0 mi Calm Calm - N/A   Clear
5:54 AM 66.0 °F - 63.0 °F 90% 29.93 in 10.0 mi Calm Calm - N/A   Clear
6:54 AM 69.1 °F - 64.0 °F 84% 29.93 in 10.0 mi Calm Calm - N/A   Scattered Clouds
7:54 AM 73.0 °F - 64.9 °F 76% 29.95 in 10.0 mi Calm Calm - N/A   Clear
8:54 AM 75.9 °F - 66.0 °F 71% 29.94 in 10.0 mi Calm Calm - N/A   Scattered Clouds
9:54 AM 77.0 °F - 66.0 °F 69% 29.93 in 10.0 mi WNW 6.9 mph - N/A   Partly Cloudy
10:54 AM 80.1 °F 82.3 °F 66.9 °F 64% 29.91 in 10.0 mi West 8.1 mph - N/A   Clear
11:54 AM 82.0 °F 84.1 °F 66.0 °F 58% 29.91 in 10.0 mi Variable 5.8 mph - N/A   Partly Cloudy
12:54 PM 84.9 °F 87.6 °F 66.9 °F 55% 29.91 in 10.0 mi West 10.4 mph - N/A   Partly Cloudy
1:54 PM 84.0 °F 85.4 °F 64.0 °F 51% 29.90 in 10.0 mi West 9.2 mph - N/A   Scattered Clouds
2:54 PM 86.0 °F 87.6 °F 64.9 °F 49% 29.88 in 10.0 mi West 9.2 mph - N/A   Clear
3:54 PM 86.0 °F 88.2 °F 66.0 °F 51% 29.87 in 10.0 mi SW 11.5 mph - N/A   Scattered Clouds
4:54 PM 84.0 °F 86.3 °F 66.0 °F 55% 29.86 in 10.0 mi WSW 9.2 mph - N/A   Partly Cloudy
5:54 PM 84.0 °F 85.8 °F 64.9 °F 53% 29.88 in 10.0 mi SW 9.2 mph - N/A   Clear
6:54 PM 81.0 °F 81.7 °F 61.0 °F 50% 29.88 in 10.0 mi Variable 5.8 mph - N/A   Partly Cloudy
7:54 PM 79.0 °F - 64.9 °F 62% 29.88 in 10.0 mi SSW 5.8 mph - N/A   Clear
8:54 PM 77.0 °F - 64.0 °F 64% 29.89 in 10.0 mi South 4.6 mph - N/A   Clear
9:54 PM 73.0 °F - 64.9 °F 76% 29.92 in 10.0 mi Calm Calm - N/A   Clear
10:54 PM 73.0 °F - 64.9 °F 76% 29.92 in 10.0 mi South 3.5 mph - N/A   Clear
11:54 PM 70.0 °F - 64.0 °F 81% 29.93 in 10.0 mi SSE 5.8 mph - N/A   Clear